Location: Brunembert
(50.7122°N, 1.8935°E)
Time: 01:51:07
(UTC+00:00)

Cosmos 1500 Rocket - Pass Details

Date: 03 August 2021
Orbit: 602 x 632 km, 82.5° (Epoch: 18 September)

Event Time Altitude Azimuth Distance (km) Brightness Sun altitude
Exits shadow 22:44:38 13° 232° (SW) 1,789 5.7 -20.1°
Maximum altitude 22:47:57 30° 290° (WNW) 1,125 5.2 -20.3°
Drops below altitude 10° 22:51:55 10° 352° (N) 2,021 7.4 -20.5°
Sets 22:54:24 0° 4° (N) 2,937 8.3 -20.6°
